Powrót do katalogu

STARLINK-11159

AktywnyŁącznośćVLEO
NORAD 60905·PAYLOAD·🇺🇸 United States

Wystrzelony Aug 31, 2024 z Cape Canaveral Space Force Station

Loading…

Następne Przeloty (najbliższe 24 godziny)

TLE

ŚwieżeSource: CelesTrak SupGP

Epoka: Sep 15, 2026, 02:16 UTC

1 60905C 24154C   26258.09493056  .00000089  00000+0  73696-6 0  2586
2 60905  53.1578 277.8717 0001192  95.0473  78.1993 15.69706269    10

Śledź STARLINK-11159 w czasie rzeczywistym z AllMySat

Download on the App Store